{"data":{"norad_id":58127,"intl_designator":"2023-162K","name":"STARLINK-30790","alt_names":[],"object_type":"PAYLOAD","status":"ACTIVE","operator":null,"country":"US","launch_date":"2023-10-22","launch_site_code":"AFETR","launch_vehicle":null,"mission":null,"orbit_class":"UNKNOWN","rcs_meters":null,"size_class":null,"mass_kg":null,"dimensions":null,"purposes":["comms"],"wikipedia_slug":null,"has_3d_model":false,"image_url":null,"decayed_at":null,"tle_current":{"epoch":"2026-09-20T08:12:37.018368Z","epoch_age_seconds":154151,"freshness":"FRESH","line1":"1 58127U 23162K   26263.34209512  .00028466  00000+0  11229-2 0  9994","line2":"2 58127  42.9992 122.0004 0023684 219.2694 140.6439 15.24782488161975","mean_motion":15.24782488,"eccentricity":0.0023684,"inclination_deg":42.9992,"raan_deg":122.0004,"arg_perigee_deg":219.2694,"mean_anomaly_deg":140.6439,"bstar":0.0011229,"rev_number":16197,"period_min":94.439699519949,"perigee_km":475.1687551039,"apogee_km":507.70856108115,"semimajor_km":6869.5756580925,"source":"CELESTRAK","updated_at":"2026-09-21T09:00:33.792324Z"}}}